TimeMDT,TemperatureF,Dew PointF,Humidity,Sea Level PressureIn,VisibilityMPH,Wind Direction,Wind SpeedMPH,Gust SpeedMPH,PrecipitationIn,Events,Conditions,WindDirDegrees,DateUTC
12:51 AM,52.0,32.0,47,29.70,10.0,North,6.9,-,N/A,,Overcast,350,2013-04-30 06:51:00
1:51 AM,53.1,28.9,40,29.70,10.0,Calm,Calm,-,N/A,,Overcast,0,2013-04-30 07:51:00
2:51 AM,46.9,30.0,52,29.71,10.0,WNW,6.9,-,N/A,,Mostly Cloudy,300,2013-04-30 08:51:00
3:51 AM,44.1,30.0,58,29.72,10.0,North,11.5,-,N/A,,Mostly Cloudy,360,2013-04-30 09:51:00
4:51 AM,46.0,21.9,39,29.71,10.0,North,17.3,-,N/A,,Mostly Cloudy,350,2013-04-30 10:51:00
5:51 AM,46.9,23.0,39,29.72,10.0,SSW,3.5,-,N/A,,Overcast,210,2013-04-30 11:51:00
6:51 AM,44.1,23.0,43,29.75,10.0,Calm,Calm,-,N/A,,Scattered Clouds,0,2013-04-30 12:51:00
7:51 AM,48.0,21.9,36,29.77,10.0,NW,8.1,-,N/A,,Clear,310,2013-04-30 13:51:00
8:51 AM,48.9,19.9,32,29.79,10.0,North,11.5,-,N/A,,Clear,360,2013-04-30 14:51:00
9:51 AM,50.0,19.9,31,29.79,10.0,NNE,10.4,-,N/A,,Clear,20,2013-04-30 15:51:00
10:51 AM,51.1,16.0,25,29.80,10.0,NNW,4.6,-,N/A,,Clear,330,2013-04-30 16:51:00
12:51 PM,53.1,12.9,20,29.80,10.0,Calm,Calm,-,N/A,,Clear,0,2013-04-30 18:51:00
1:28 PM,53.6,10.4,18,29.87,10.0,West,16.1,21.9,N/A,,Clear,260,2013-04-30 19:28:00
1:51 PM,55.0,14.0,20,29.80,10.0,WNW,16.1,23.0,N/A,,Clear,290,2013-04-30 19:51:00
2:51 PM,55.9,15.1,20,29.81,10.0,NW,11.5,21.9,N/A,,Clear,310,2013-04-30 20:51:00
3:51 PM,57.0,15.1,19,29.81,10.0,WNW,16.1,26.5,N/A,,Partly Cloudy,290,2013-04-30 21:51:00
4:51 PM,55.0,10.0,17,29.83,10.0,NW,19.6,32.2,N/A,,Clear,310,2013-04-30 22:51:00
5:51 PM,54.0,6.1,15,29.86,10.0,NW,16.1,27.6,N/A,,Clear,320,2013-04-30 23:51:00
6:51 PM,51.1,1.9,13,29.90,10.0,NW,19.6,-,N/A,,Clear,320,2013-05-01 00:51:00
7:51 PM,46.9,6.1,19,29.92,10.0,NNW,13.8,-,N/A,,Clear,330,2013-05-01 01:51:00
8:51 PM,41.0,8.1,26,29.98,10.0,Variable,5.8,-,N/A,,Clear,0,2013-05-01 02:51:00
9:51 PM,37.9,9.0,30,30.03,10.0,North,6.9,-,N/A,,Clear,10,2013-05-01 03:51:00
10:51 PM,39.0,6.1,26,30.05,10.0,NW,12.7,-,N/A,,Clear,320,2013-05-01 04:51:00
11:51 PM,37.0,8.1,30,30.05,10.0,Calm,Calm,-,N/A,,Clear,0,2013-05-01 05:51:00